Radiation Dose at Monitoring Post of Fukushima Daini Nuclear Power Station
Date,Time,MP-1(microSv/h),MP-2(microSv/h),MP-3(microSv/h),MP-4(microSv/h),MP-5(microSv/h),MP-6(microSv/h),MP-7(microSv/h),Wind Direction,Wind Velocity(m/s),Rain
2024/05/29,00:00,0.146,0.130,0.203,0.193,0.202,0.116,0.077,northwest,1.0,Yes
2024/05/29,00:10,0.146,0.129,0.205,0.190,0.205,0.115,0.078,-,CALM,Yes
2024/05/29,00:20,0.145,0.129,0.203,0.192,0.203,0.115,0.077,-,CALM,Yes
2024/05/29,00:30,0.145,0.127,0.205,0.191,0.205,0.115,0.077,west-northwest,4.1,Yes
2024/05/29,00:40,0.145,0.128,0.203,0.192,0.202,0.116,0.078,west-northwest,8.1,Yes
2024/05/29,00:50,0.146,0.129,0.204,0.191,0.204,0.116,0.079,west-northwest,6.3,Yes
2024/05/29,01:00,0.145,0.129,0.204,0.192,0.202,0.115,0.077,west-northwest,6.2,Yes
2024/05/29,01:10,0.144,0.127,0.204,0.191,0.205,0.114,0.076,west-northwest,5.1,No
2024/05/29,01:20,0.145,0.126,0.203,0.191,0.202,0.115,0.075,northwest,4.3,No
2024/05/29,01:30,0.143,0.127,0.202,0.188,0.203,0.113,0.076,north-northeast,5.8,Yes
2024/05/29,01:40,0.143,0.127,0.202,0.191,0.203,0.114,0.075,north-northwest,6.4,Yes
2024/05/29,01:50,0.144,0.126,0.202,0.190,0.203,0.114,0.075,north,4.5,Yes
2024/05/29,02:00,0.144,0.128,0.204,0.191,0.202,0.113,0.075,north,4.2,Yes
2024/05/29,02:10,0.145,0.129,0.203,0.190,0.204,0.114,0.077,north,4.4,Yes
2024/05/29,02:20,0.147,0.129,0.205,0.193,0.203,0.115,0.078,north,3.9,Yes
2024/05/29,02:30,0.146,0.131,0.205,0.192,0.206,0.116,0.078,north-northwest,4.7,Yes
2024/05/29,02:40,0.148,0.132,0.207,0.194,0.205,0.117,0.079,north-northwest,4.2,Yes
2024/05/29,02:50,0.148,0.133,0.208,0.194,0.209,0.119,0.081,north-northwest,4.7,Yes
2024/05/29,03:00,0.149,0.132,0.207,0.195,0.208,0.119,0.081,north,4.7,Yes
2024/05/29,03:10,0.148,0.133,0.208,0.195,0.208,0.118,0.081,north-northwest,4.8,Yes
2024/05/29,03:20,0.149,0.132,0.207,0.196,0.207,0.118,0.081,north,4.9,Yes
2024/05/29,03:30,0.148,0.134,0.208,0.196,0.209,0.119,0.081,north-northeast,5.1,Yes
2024/05/29,03:40,0.150,0.135,0.209,0.197,0.209,0.120,0.083,north-northwest,3.4,Yes
2024/05/29,03:50,0.150,0.134,0.211,0.198,0.210,0.122,0.084,north,4.6,Yes
2024/05/29,04:00,0.151,0.135,0.209,0.197,0.209,0.121,0.084,north,4.7,Yes
2024/05/29,04:10,0.149,0.134,0.209,0.198,0.210,0.121,0.085,north,4.7,Yes
2024/05/29,04:20,0.150,0.134,0.207,0.195,0.209,0.121,0.084,north-northwest,4.7,Yes
2024/05/29,04:30,0.150,0.134,0.208,0.196,0.209,0.120,0.084,north,5.4,Yes
2024/05/29,04:40,0.149,0.135,0.208,0.196,0.208,0.121,0.082,north,5.1,Yes
2024/05/29,04:50,0.151,0.136,0.208,0.197,0.209,0.120,0.084,north,4.9,Yes
2024/05/29,05:00,0.153,0.135,0.209,0.197,0.210,0.121,0.086,north,4.7,Yes
2024/05/29,05:10,0.151,0.137,0.210,0.197,0.208,0.121,0.086,north,4.1,Yes
2024/05/29,05:20,0.149,0.135,0.208,0.197,0.209,0.121,0.084,north,3.9,Yes
2024/05/29,05:30,0.148,0.134,0.207,0.194,0.206,0.119,0.082,north,4.8,Yes
2024/05/29,05:40,0.146,0.131,0.206,0.193,0.207,0.118,0.080,north,4.4,No
2024/05/29,05:50,0.146,0.130,0.205,0.192,0.205,0.116,0.078,north,3.0,No
2024/05/29,06:00,0.144,0.128,0.203,0.191,0.206,0.115,0.077,north,3.9,No
2024/05/29,06:10,0.143,0.128,0.202,0.190,0.202,0.114,0.077,north,4.4,No
2024/05/29,06:20,0.142,0.128,0.201,0.189,0.204,0.113,0.076,north-northwest,4.8,No
2024/05/29,06:30,0.142,0.126,0.202,0.188,0.201,0.112,0.075,north,5.3,No
2024/05/29,06:40,0.141,0.126,0.200,0.189,0.204,0.112,0.074,north-northwest,4.4,No
2024/05/29,06:50,0.142,0.125,0.200,0.186,0.202,0.111,0.074,north,4.5,No
2024/05/29,07:00,0.141,0.126,0.199,0.187,0.202,0.112,0.073,north,4.0,No
2024/05/29,07:10,0.141,0.125,0.201,0.186,0.200,0.111,0.074,north-northwest,3.2,No
2024/05/29,07:20,0.140,0.125,0.199,0.187,0.202,0.112,0.073,north-northwest,3.9,No
2024/05/29,07:30,0.140,0.123,0.200,0.186,0.198,0.110,0.073,north,4.0,No
2024/05/29,07:40,0.139,0.125,0.199,0.187,0.201,0.111,0.072,north,3.4,No
2024/05/29,07:50,0.141,0.124,0.199,0.186,0.200,0.110,0.073,north,3.4,No
2024/05/29,08:00,0.139,0.126,0.199,0.187,0.201,0.110,0.072,north,4.2,No
2024/05/29,08:10,0.140,0.124,0.200,0.187,0.201,0.111,0.073,north,2.9,No
2024/05/29,08:20,0.139,0.124,0.197,0.186,0.200,0.109,0.073,north,4.0,No
2024/05/29,08:30,0.140,0.124,0.200,0.187,0.201,0.111,0.073,north-northeast,3.5,No
2024/05/29,08:40,0.140,0.125,0.198,0.186,0.200,0.111,0.073,north-northeast,3.3,Yes
2024/05/29,08:50,0.139,0.125,0.201,0.188,0.202,0.110,0.072,north-northeast,2.9,Yes
2024/05/29,09:00,0.141,0.124,0.198,0.187,0.200,0.110,0.072,north-northeast,2.9,No
2024/05/29,09:10,0.139,0.125,0.200,0.187,0.199,0.110,0.071,north-northeast,2.3,No
2024/05/29,09:20,0.141,0.125,0.199,0.187,0.201,0.110,0.073,northeast,2.4,No
2024/05/29,09:30,0.140,0.124,0.197,0.185,0.199,0.110,0.073,northeast,2.8,No
2024/05/29,09:40,0.139,0.125,0.200,0.188,0.200,0.111,0.072,northeast,2.2,No
2024/05/29,09:50,0.141,0.125,0.199,0.187,0.202,0.111,0.073,northeast,1.6,No
2024/05/29,10:00,0.139,0.124,0.198,0.187,0.199,0.110,0.072,northeast,1.5,No
2024/05/29,10:10,0.141,0.124,0.200,0.188,0.201,0.111,0.072,east,1.6,No
2024/05/29,10:20,0.140,0.125,0.199,0.187,0.200,0.110,0.073,northeast,1.2,No
2024/05/29,10:30,0.139,0.125,0.199,0.187,0.199,0.110,0.072,east-northeast,0.7,No
2024/05/29,10:40,0.140,0.124,0.201,0.189,0.202,0.111,0.072,-,CALM,No
2024/05/29,10:50,0.141,0.125,0.199,0.187,0.201,0.111,0.073,east-northeast,1.2,No
2024/05/29,11:00,0.139,0.125,0.200,0.187,0.199,0.110,0.072,east-northeast,0.9,No
2024/05/29,11:10,0.141,0.124,0.201,0.188,0.202,0.111,0.072,east-northeast,2.2,No
2024/05/29,11:20,0.140,0.125,0.198,0.186,0.201,0.111,0.073,east-northeast,1.6,No
2024/05/29,11:30,0.139,0.125,0.200,0.187,0.200,0.110,0.072,east,1.5,No
2024/05/29,11:40,0.139,0.123,0.201,0.189,0.200,0.111,0.072,northeast,0.7,No
2024/05/29,11:50,0.141,0.125,0.198,0.188,0.202,0.112,0.072,east-northeast,2.3,No
2024/05/29,12:00,0.139,0.124,0.198,0.186,0.200,0.111,0.072,east-northeast,2.2,No
2024/05/29,12:10,0.140,0.124,0.198,0.186,0.200,0.111,0.072,east-northeast,2.0,No
2024/05/29,12:20,0.139,0.124,0.201,0.187,0.198,0.112,0.072,east-southeast,2.0,No
2024/05/29,12:30,0.140,0.125,0.202,0.190,0.201,0.110,0.072,east,2.0,No
2024/05/29,12:40,0.140,0.125,0.200,0.188,0.202,0.111,0.073,southeast,2.9,No
2024/05/29,12:50,0.139,0.124,0.199,0.187,0.200,0.111,0.072,southeast,2.1,No
2024/05/29,13:00,0.138,0.123,0.202,0.190,0.199,0.111,0.073,southeast,2.1,No
2024/05/29,13:10,0.140,0.124,0.202,0.190,0.203,0.111,0.073,south-southeast,2.7,No
2024/05/29,13:20,0.141,0.124,0.199,0.187,0.201,0.111,0.072,southeast,3.0,No
2024/05/29,13:30,0.140,0.124,0.200,0.188,0.200,0.112,0.072,east-southeast,2.4,No
2024/05/29,13:40,0.139,0.125,0.202,0.189,0.200,0.110,0.073,southeast,1.8,No
2024/05/29,13:50,0.142,0.125,0.201,0.188,0.201,0.111,0.073,east-southeast,2.7,No
2024/05/29,14:00,0.141,0.125,0.199,0.188,0.204,0.112,0.072,east-southeast,3.0,No
2024/05/29,14:10,0.140,0.124,0.199,0.188,0.201,0.110,0.072,east,2.1,No
2024/05/29,14:20,0.140,0.123,0.199,0.190,0.200,0.110,0.072,east,2.8,No
2024/05/29,14:30,0.139,0.125,0.202,0.189,0.200,0.110,0.073,east-southeast,2.6,No
2024/05/29,14:40,0.138,0.125,0.202,0.189,0.199,0.111,0.072,southeast,1.7,No
2024/05/29,14:50,0.140,0.126,0.200,0.188,0.199,0.111,0.072,south,1.9,No
2024/05/29,15:00,0.141,0.124,0.198,0.188,0.200,0.111,0.072,west-southwest,3.3,No
2024/05/29,15:10,0.140,0.123,0.199,0.187,0.200,0.111,0.072,north-northwest,0.7,No
2024/05/29,15:20,0.141,0.124,0.199,0.189,0.199,0.111,0.072,north-northwest,1.7,No
2024/05/29,15:30,0.139,0.124,0.200,0.190,0.200,0.111,0.072,west-northwest,5.6,No
2024/05/29,15:40,0.141,0.125,0.203,0.189,0.203,0.111,0.073,west-northwest,0.8,No
2024/05/29,15:50,0.142,0.125,0.202,0.189,0.203,0.111,0.072,east-northeast,1.3,No
2024/05/29,16:00,0.141,0.124,0.200,0.191,0.202,0.112,0.073,south,1.3,No
2024/05/29,16:10,0.140,0.125,0.202,0.189,0.202,0.111,0.073,west,4.4,No
2024/05/29,16:20,0.141,0.125,0.202,0.188,0.200,0.112,0.072,west-northwest,5.9,No
2024/05/29,16:30,0.141,0.124,0.200,0.191,0.199,0.111,0.073,west,6.7,No
2024/05/29,16:40,0.141,0.125,0.203,0.190,0.199,0.112,0.072,west-northwest,7.7,No
2024/05/29,16:50,0.139,0.125,0.203,0.189,0.200,0.112,0.072,west-northwest,5.7,No
2024/05/29,17:00,0.140,0.125,0.200,0.191,0.200,0.112,0.073,west-northwest,4.9,No
2024/05/29,17:10,0.143,0.126,0.203,0.190,0.201,0.112,0.072,west-northwest,5.3,No
2024/05/29,17:20,0.141,0.125,0.201,0.189,0.203,0.111,0.073,west-northwest,6.0,No
2024/05/29,17:30,0.142,0.125,0.203,0.191,0.203,0.112,0.073,west-northwest,5.4,No
2024/05/29,17:40,0.142,0.126,0.202,0.188,0.202,0.112,0.072,west-northwest,3.8,No
2024/05/29,17:50,0.140,0.125,0.203,0.191,0.200,0.112,0.073,west,3.1,No
2024/05/29,18:00,0.142,0.125,0.201,0.189,0.204,0.112,0.073,northwest,2.2,No
2024/05/29,18:10,0.142,0.125,0.202,0.190,0.203,0.112,0.073,northwest,1.9,No
2024/05/29,18:20,0.140,0.126,0.203,0.190,0.201,0.112,0.072,northwest,2.4,No
2024/05/29,18:30,0.142,0.125,0.201,0.190,0.204,0.111,0.072,north-northwest,2.8,No
2024/05/29,18:40,0.142,0.126,0.204,0.190,0.203,0.112,0.072,northwest,3.0,No
2024/05/29,18:50,0.141,0.124,0.201,0.189,0.205,0.112,0.073,northwest,3.4,No
2024/05/29,19:00,0.142,0.125,0.203,0.190,0.202,0.112,0.072,north-northwest,1.8,No
2024/05/29,19:10,0.141,0.125,0.203,0.190,0.203,0.112,0.072,northwest,1.8,No
2024/05/29,19:20,0.142,0.125,0.203,0.190,0.203,0.112,0.072,northwest,1.6,No
2024/05/29,19:30,0.142,0.126,0.203,0.191,0.203,0.112,0.072,west-northwest,0.8,No
2024/05/29,19:40,0.142,0.125,0.202,0.190,0.202,0.112,0.073,-,CALM,No
2024/05/29,19:50,0.141,0.126,0.203,0.191,0.203,0.112,0.072,west-southwest,1.1,No
2024/05/29,20:00,0.143,0.126,0.202,0.189,0.202,0.112,0.072,west-northwest,1.2,No
2024/05/29,20:10,0.141,0.125,0.204,0.192,0.203,0.112,0.073,west,1.4,No
2024/05/29,20:20,0.142,0.126,0.201,0.190,0.201,0.113,0.072,west-northwest,1.5,No
2024/05/29,20:30,0.142,0.126,0.202,0.190,0.203,0.112,0.073,west-northwest,1.3,No
2024/05/29,20:40,0.143,0.126,0.203,0.191,0.202,0.112,0.072,west,1.6,No
2024/05/29,20:50,0.141,0.126,0.202,0.190,0.204,0.111,0.073,west-northwest,2.3,No
2024/05/29,21:00,0.140,0.125,0.203,0.190,0.203,0.112,0.072,west-northwest,2.1,No
2024/05/29,21:10,0.142,0.126,0.203,0.189,0.203,0.111,0.072,west-northwest,2.1,No
2024/05/29,21:20,0.141,0.126,0.202,0.191,0.202,0.111,0.073,northwest,1.5,No
2024/05/29,21:30,0.143,0.125,0.203,0.189,0.204,0.112,0.073,west-northwest,1.6,No
2024/05/29,21:40,0.142,0.125,0.202,0.190,0.202,0.112,0.072,west-northwest,2.8,No
2024/05/29,21:50,0.142,0.126,0.201,0.190,0.202,0.112,0.073,west-northwest,1.6,No
2024/05/29,22:00,0.142,0.125,0.203,0.190,0.203,0.112,0.073,west,2.6,No
2024/05/29,22:10,0.142,0.126,0.203,0.190,0.203,0.112,0.073,west-southwest,1.5,No
2024/05/29,22:20,0.142,0.125,0.203,0.191,0.205,0.112,0.073,southwest,1.6,No
2024/05/29,22:30,0.141,0.126,0.202,0.190,0.202,0.112,0.073,south-southwest,1.5,No
2024/05/29,22:40,0.142,0.125,0.204,0.191,0.203,0.112,0.072,south-southeast,1.3,No
2024/05/29,22:50,0.142,0.125,0.203,0.190,0.202,0.112,0.073,south-southeast,1.6,No
2024/05/29,23:00,0.141,0.127,0.203,0.190,0.203,0.112,0.073,southeast,2.1,No
2024/05/29,23:10,0.142,0.125,0.203,0.190,0.201,0.112,0.073,south,1.5,No
2024/05/29,23:20,0.142,0.126,0.202,0.190,0.202,0.112,0.074,south-southwest,2.1,No
2024/05/29,23:30,0.142,0.126,0.202,0.191,0.204,0.112,0.072,south-southeast,1.0,No
2024/05/29,23:40,0.141,0.126,0.203,0.191,0.202,0.112,0.073,west-southwest,2.3,No
2024/05/29,23:50,0.142,0.125,0.202,0.190,0.205,0.112,0.073,-,CALM,No
